IQ0OG-3 Weather Reports


Display with metric or nautical units.
time (UTC)temp
F
wind
direction
speed
MPH
gust
MPH
rain 1hr
in
rain 24hr
in
rain mn
in
humidity
%
barometer
mb
20260902142939 85 89 2.0 11.0 0.00 0.00 0.00 65 1017.7
20260902140939 85 98 3.0 9.0 0.00 0.00 0.00 65 1018.0
20260902135939 85 110 4.0 8.0 0.00 0.00 0.00 66 1017.9
20260902134940 85 87 4.0 11.0 0.00 0.00 0.00 67 1018.1
20260902132939 86 84 7.0 11.0 0.00 0.00 0.00 67 1018.2
20260902131939 86 95 6.0 11.0 0.00 0.00 0.00 66 1018.3
20260902124939 85 106 4.0 11.0 0.00 0.00 0.00 68 1018.5
20260902123939 86 83 6.0 11.0 0.00 0.00 0.00 69 1018.7
20260902122939 85 100 7.0 9.0 0.00 0.00 0.00 69 1018.6
20260902121939 86 110 4.0 11.0 0.00 0.00 0.00 68 1018.9
20260902120939 86 94 4.0 9.0 0.00 0.00 0.00 67 1018.6
20260902115939 86 66 1.0 8.0 0.00 0.00 0.00 66 1018.7
20260902114939 86 94 2.0 7.0 0.00 0.00 0.00 67 1018.7
20260902113941 87 122 2.0 8.0 0.00 0.00 0.00 66 1018.6
20260902112939 86 99 2.0 9.0 0.00 0.00 0.00 65 1019.0
20260902111938 85 98 2.0 9.0 0.00 0.00 0.00 68 1019.0
20260902110939 85 93 6.0 13.0 0.00 0.00 0.00 70 1019.3
20260902105939 86 90 4.0 9.0 0.00 0.00 0.00 67 1019.1
20260902104938 86 88 5.0 11.0 0.00 0.00 0.00 66 1019.1
20260902103939 85 85 2.0 11.0 0.00 0.00 0.00 63 1019.1
20260902101938 85 65 4.0 13.0 0.00 0.00 0.00 65 1019.3
20260902100939 86 89 8.0 14.0 0.00 0.00 0.00 65 1019.3
20260902095939 86 96 5.0 11.0 0.00 0.00 0.00 64 1019.4
20260902094938 85 96 8.0 11.0 0.00 0.00 0.00 65 1019.4
20260902093939 85 97 3.0 11.0 0.00 0.00 0.00 63 1019.3
20260902092938 87 69 4.0 13.0 0.00 0.00 0.00 60 1019.1
20260902091938 86 87 1.0 11.0 0.00 0.00 0.00 53 1019.4
20260902090938 88 88 4.0 9.0 0.00 0.00 0.00 53 1019.1
20260902085939 86 77 5.0 9.0 0.00 0.00 0.00 55 1019.1
20260902084938 87 89 5.0 9.0 0.00 0.00 0.00 56 1019.0
20260902083938 86 53 5.0 9.0 0.00 0.00 0.00 57 1019.1
20260902082938 87 54 2.0 6.0 0.00 0.00 0.00 57 1019.0
20260902080938 86 83 2.0 6.0 0.00 0.00 0.00 62 1018.8
20260902075940 85 29 1.0 4.0 0.00 0.00 0.00 62 1018.9
20260902074937 85 45 2.0 4.0 0.00 0.00 0.00 62 1018.8
20260902073938 83 44 2.0 6.0 0.00 0.00 0.00 63 1018.7
20260902072937 83 26 2.0 4.0 0.00 0.00 0.00 62 1018.7
20260902071938 85 38 2.0 4.0 0.00 0.00 0.00 62 1018.6
20260902070937 83 0 0.0 2.0 0.00 0.00 0.00 50 1018.6
20260902065938 82 0 0.0 2.0 0.00 0.00 0.00 53 1018.7
20260902064938 80 166 1.0 2.0 0.00 0.00 0.00 59 1018.7
20260902062938 81 0 0.0 2.0 0.00 0.00 0.00 59 1018.7
20260902061938 82 0 0.0 2.0 0.00 0.00 0.00 47 1018.5
20260902060937 80 0 0.0 2.0 0.00 0.00 0.00 48 1018.6
20260902054938 80 249 2.0 2.0 0.00 0.00 0.00 45 1018.3
20260902053937 78 227 2.0 4.0 0.00 0.00 0.00 46 1018.3
20260902045938 78 285 2.0 2.0 0.00 0.00 0.00 48 1018.3
20260902044937 78 269 2.0 2.0 0.00 0.00 0.00 49 1018.2
20260902043937 78 292 2.0 4.0 0.00 0.00 0.00 48 1017.8
20260902042937 79 272 2.0 4.0 0.00 0.00 0.00 46 1018.0
20260902041937 79 273 2.0 4.0 0.00 0.00 0.00 47 1018.0
20260902035938 78 288 2.0 4.0 0.00 0.00 0.00 48 1017.8
20260902034937 79 279 2.0 4.0 0.00 0.00 0.00 47 1017.7
20260902033937 78 270 2.0 2.0 0.00 0.00 0.00 47 1017.6
20260902032937 79 316 1.0 2.0 0.00 0.00 0.00 46 1017.7
20260902031937 79 0 0.0 4.0 0.00 0.00 0.00 45 1017.6
20260902025938 80 225 2.0 4.0 0.00 0.00 0.00 44 1017.6
20260902024937 79 269 2.0 4.0 0.00 0.00 0.00 45 1017.9
20260902023937 80 232 2.0 2.0 0.00 0.00 0.00 45 1017.7
20260902022937 79 269 2.0 4.0 0.00 0.00 0.00 45 1017.7
20260902021937 79 278 2.0 2.0 0.00 0.00 0.00 46 1017.8
20260902020937 78 269 2.0 2.0 0.00 0.00 0.00 48 1017.7
20260902015938 78 0 0.0 4.0 0.00 0.00 0.00 48 1017.9
20260902014937 79 281 2.0 4.0 0.00 0.00 0.00 48 1017.9
20260902013936 77 276 2.0 4.0 0.00 0.00 0.00 50 1017.6
20260902012937 78 288 2.0 4.0 0.00 0.00 0.00 50 1017.8
20260902010936 78 306 2.0 4.0 0.00 0.00 0.00 52 1017.7
20260902004937 80 276 2.0 2.0 0.00 0.00 0.00 49 1017.7
20260902003937 80 285 2.0 2.0 0.00 0.00 0.00 48 1017.7
20260902002936 80 275 1.0 4.0 0.00 0.00 0.00 47 1017.9
20260902001937 81 275 2.0 4.0 0.00 0.00 0.00 45 1017.9
20260901235937 81 276 2.0 4.0 0.00 0.00 0.00 44 1017.9
20260901234937 80 285 2.0 4.0 0.00 0.00 0.00 44 1018.1
20260901233936 81 277 2.0 4.0 0.00 0.00 0.00 46 1018.1
20260901232936 80 279 2.0 4.0 0.00 0.00 0.00 44 1018.2
20260901231936 82 226 2.0 4.0 0.00 0.00 0.00 43 1018.1
20260901230936 82 235 2.0 4.0 0.00 0.00 0.00 44 1018.0
20260901224936 80 0 0.0 4.0 0.00 0.00 0.00 45 1018.1
20260901223936 81 280 2.0 4.0 0.00 0.00 0.00 44 1018.2
20260901222936 82 268 3.0 4.0 0.00 0.00 0.00 44 1018.1
20260901221936 84 235 2.0 4.0 0.00 0.00 0.00 41 1018.2
20260901220936 83 229 2.0 4.0 0.00 0.00 0.00 40 1018.4
20260901214936 80 265 2.0 2.0 0.00 0.00 0.00 49 1018.3
20260901212936 81 238 1.0 6.0 0.00 0.00 0.00 54 1018.4
20260901211936 80 209 2.0 4.0 0.00 0.00 0.00 57 1018.5
20260901210936 80 249 1.0 4.0 0.00 0.00 0.00 58 1018.4
20260901205936 80 269 2.0 4.0 0.00 0.00 0.00 59 1018.6
20260901203936 78 276 2.0 4.0 0.00 0.00 0.00 66 1018.4
20260901202936 78 274 3.0 4.0 0.00 0.00 0.00 69 1018.5
20260901201935 78 263 1.0 2.0 0.00 0.00 0.00 69 1018.5
20260901200935 78 0 0.0 2.0 0.00 0.00 0.00 69 1018.5
20260901195936 78 278 2.0 2.0 0.00 0.00 0.00 69 1018.5
20260901194936 78 261 2.0 4.0 0.00 0.00 0.00 70 1018.5
20260901193936 78 270 2.0 4.0 0.00 0.00 0.00 70 1018.2
20260901192936 77 0 0.0 2.0 0.00 0.00 0.00 71 1017.9
20260901191936 78 267 1.0 2.0 0.00 0.00 0.00 71 1018.1
20260901190935 77 0 0.0 2.0 0.00 0.00 0.00 72 1018.1
20260901185937 77 274 2.0 2.0 0.00 0.00 0.00 72 1017.8
20260901184935 78 269 1.0 2.0 0.00 0.00 0.00 72 1017.9
20260901183936 78 248 1.0 2.0 0.00 0.00 0.00 72 1017.8
20260901182936 78 248 1.0 2.0 0.00 0.00 0.00 71 1017.8
20260901181937 78 0 0.0 2.0 0.00 0.00 0.00 71 1017.6
20260901175939 79 0 0.0 2.0 0.00 0.00 0.00 69 1017.4
20260901174938 80 0 0.0 2.0 0.00 0.00 0.00 69 1017.5
20260901173939 80 0 0.0 2.0 0.00 0.00 0.00 67 1017.5
20260901172938 80 0 0.0 4.0 0.00 0.00 0.00 66 1017.4
20260901171939 81 354 2.0 4.0 0.00 0.00 0.00 65 1017.5
20260901170940 82 0 0.0 2.0 0.00 0.00 0.00 63 1017.5
20260901165940 82 0 0.0 4.0 0.00 0.00 0.00 63 1017.5
20260901164940 82 75 2.0 7.0 0.00 0.00 0.00 62 1017.5
20260901163941 83 105 2.0 4.0 0.00 0.00 0.00 63 1017.4
20260901162941 82 106 2.0 6.0 0.00 0.00 0.00 64 1017.6
20260901161941 83 131 3.0 6.0 0.00 0.00 0.00 65 1017.7
20260901160942 84 92 2.0 7.0 0.00 0.00 0.00 64 1017.7
20260901155942 84 90 4.0 7.0 0.00 0.00 0.00 65 1017.5
20260901154942 84 88 2.0 7.0 0.00 0.00 0.00 64 1017.7
20260901153943 83 77 4.0 8.0 0.00 0.00 0.00 64 1017.6
20260901152943 85 83 5.0 8.0 0.00 0.00 0.00 63 1017.7
20260901151942 84 58 4.0 9.0 0.00 0.00 0.00 64 1017.6
20260901150943 85 103 4.0 9.0 0.00 0.00 0.00 63 1017.5
20260901145944 84 86 3.0 9.0 0.00 0.00 0.00 63 1017.5
20260901144944 85 112 2.0 8.0 0.00 0.00 0.00 62 1017.6
20260901143944 86 104 4.0 11.0 0.00 0.00 0.00 61 1017.6